Find Starlink 4778

NORAD ID: 53836 Int'l Des: 2022-114 Owner: SPXS Country: US Constellation: starlink operational
LEOCIRCULAR

Live Position

Loading 3D Globe...

About Starlink 4778

Description loading...

Upcoming Passes

Passes for default location (London). Set your location on the main map for personalized predictions.

Altitude History

Loading altitude history...

Two-Line Element Set

1 53836U 22114U 26127.23944296 .00082179 00000-0 43892-2 0 9997
2 53836 53.2195 31.0693 0001555 84.2458 275.8714 15.14408741201812
Epoch: May 7, 2026 • Age: 10 hours

Current Status

Altitude 524.0 km
Velocity 7.60 km/s
Sub-Earth Point -2.86°S, 104.89°E
Launch Date Sep 19, 2022
Age 3.6 years
Type internet

Technical Details

Classification Payload
Mass 305.00 kg
Dry Mass 290.00 kg
Total Mass 305.00 kg
Length 0.20 m
Diameter 2.80 m
Span 9.00 m
Shape Box + pan
Manufacturer SPXS
Bus Type Starlink
Phase Status In Orbit
Owner/State SPXS/US

Most Searched